Вернуться в каталог

STARLINK-2530

АктивенСвязьVLEO
NORAD 48303·PAYLOAD·🇺🇸 United States

Запущен Apr 29, 2021 с Cape Canaveral Space Force Station

Loading…

Ближайшие Пролёты (ближайшие 24 часа)

TLE

СвежийSource: CelesTrak SupGP

Эпоха: Sep 14, 2026, 21:09 UTC

1 48303C 21036AD  26257.88173611  .00026913  00000+0  86528-3 0  2576
2 48303  53.1566 287.9920 0001276  93.0275  66.2780 15.31694936    12

Отслеживайте STARLINK-2530 в реальном времени с AllMySat

Download on the App Store